[[{"header":{"parameterUnit":"m.s-1","parameterCategory":1,"la1":30.2991,"la2":30.254,"lo1":-89.0895,"lo2":-89.0444,"dy":0.0017,"dx":0.0017,"nx":28,"ny":28,"refTime":"2024-06-23T03:00:00:Z","depth":0,"parameterNumber":2,"parameterNumberName":"U-component_of_WINDS"},"data":[0,0,0,0,0,0,0,0,0,0,0,0,0,0,0,0,0,0,0,0,0,0,0,0,0,0,0,0,0,0,0,0,0,0,0,0,0,0,0,0,0,0,0,0,0,0,0,0,0,0,0,0,0,0,0,0,0,0,-0.5529,-0.5524,0,-0.5078,-0.5072,-0.5067,-0.4898,-0.4899,-0.4901,-0.4902,-0.4422,-0.4408,-0.4394,0,0,0,0,0,0,0,0,0,0,0,0,0,-0.6237,-0.6225,-0.5529,-0.5524,-0.5518,-0.5078,-0.5072,-0.5066,-0.4897,-0.4899,-0.4901,-0.4903,-0.4426,-0.441,-0.4393,0,0,0,0,0,0,0,0,0,0,0,0,0,-0.5872,-0.6221,-0.553,-0.5381,-0.5364,-0.508,-0.5072,-0.5064,-0.4897,-0.4899,-0.4901,-0.4903,-0.4432,-0.4411,-0.439,-0.4216,0,0,-0.4326,-0.4316,0,0,0,0,0,0,0,0,-0.5893,-0.5846,-0.5409,-0.5391,-0.5371,-0.5047,-0.5145,-0.4779,-0.4896,-0.5074,-0.4902,-0.4905,-0.4627,-0.459,-0.4499,-0.4193,-0.4173,-0.4324,-0.4311,-0.4302,-0.4296,0,0,0,0,0,0,0,-0.5918,-0.5864,-0.535,-0.5403,-0.5379,-0.5334,-0.5285,-0.5075,-0.4843,-0.5058,-0.5045,-0.4995,-0.4617,-0.452,-0.4487,-0.4166,-0.4324,-0.4306,-0.4292,-0.4284,-0.3703,-0.37,0,0,0,0,0,0,-0.597,-0.5886,-0.5364,-0.5336,-0.5643,-0.532,-0.5265,-0.5148,-0.4845,-0.4801,-0.4994,-0.4989,-0.4556,-0.4512,-0.4469,-0.4249,-0.4302,-0.4282,-0.427,-0.3705,-0.3702,-0.3699,0,0,0,0,0,0,-0.5986,-0.5925,-0.5382,-0.5608,-0.5535,-0.5306,-0.5176,-0.5138,-0.5042,-0.4796,-0.4752,-0.4938,-0.4556,-0.4499,-0.4283,-0.423,-0.4273,-0.4253,-0.3708,-0.3704,-0.37,-0.3805,0,0,0,0,0,0,-0.6007,-0.5932,-0.5864,-0.5608,-0.5524,-0.5206,-0.5173,-0.5128,-0.5008,-0.4997,-0.4733,-0.4691,-0.4553,-0.4316,-0.4262,-0.4201,-0.4237,-0.3712,-0.3707,-0.3702,-0.3805,-0.3805,-0.3804,0,0,0,0,0,-0.6033,-0.5905,-0.5861,-0.5799,-0.5435,-0.5203,-0.5155,-0.5004,-0.5004,-0.4933,-0.4778,-0.4699,-0.4247,-0.4295,-0.4233,-0.4165,-0.3714,-0.3708,-0.3702,-0.3805,-0.3805,-0.3804,0,0,0,0,0,0,-0.615,-0.5868,-0.5816,-0.5603,-0.543,-0.5175,-0.508,-0.5007,-0.4824,-0.4821,-0.4638,-0.4579,-0.4379,-0.425,-0.431,-0.3985,-0.3975,-0.3957,-0.4075,-0.4072,-0.4072,-0.4105,-0.4219,0,0,0,0,0,-0.6154,-0.5994,-0.5754,-0.5588,-0.5506,-0.531,-0.5202,-0.5104,-0.4913,-0.4837,-0.4664,-0.4479,-0.4297,-0.4178,-0.3995,-0.3789,-0.373,-0.3712,-0.3713,-0.3714,-0.3697,-0.3584,-0.3575,-0.3679,-0.3679,-0.3679,0,0,-0.6153,-0.598,-0.5888,-0.5608,-0.5462,-0.5298,-0.5247,-0.5073,-0.4949,-0.4808,-0.4595,-0.4465,-0.4247,-0.4038,-0.3936,-0.3924,-0.3658,-0.3706,-0.3709,-0.369,-0.3577,-0.3567,-0.3559,-0.3675,-0.3675,-0.3676,0,0,-0.607,-0.5924,-0.5773,-0.5632,-0.5416,-0.5289,-0.5255,-0.5014,-0.4924,-0.4711,-0.4604,-0.4453,-0.414,-0.3991,-0.3874,-0.3753,-0.3675,-0.3699,-0.3695,-0.3587,-0.3579,-0.3571,-0.3528,-0.3515,-0.3685,-0.3685,-0.3685,0,-0.6095,-0.5848,-0.5703,-0.5539,-0.542,-0.5297,-0.5143,-0.5011,-0.4744,-0.4664,-0.4658,-0.427,-0.4113,-0.387,-0.3843,-0.3753,-0.3706,-0.3723,-0.3593,-0.3583,-0.3573,-0.353,-0.3515,-0.369,-0.3689,-0.3689,-0.3688,0,-0.5891,-0.5723,-0.5627,-0.5383,-0.5254,-0.5095,-0.4926,-0.4813,-0.473,-0.4604,-0.4391,-0.4203,-0.3984,-0.392,-0.3831,-0.3666,-0.3667,-0.363,-0.3615,-0.357,-0.3527,-0.3509,-0.3696,-0.3694,-0.3693,-0.3692,0,0,-0.5855,-0.5546,-0.5513,-0.5404,-0.5165,-0.5029,-0.4869,-0.4663,-0.457,-0.4394,-0.4254,-0.4,-0.3968,-0.3837,-0.3733,-0.3639,-0.3559,-0.3613,-0.3605,-0.3609,-0.3369,-0.3396,-0.3379,-0.3511,-0.3507,-0.3504,-0.3387,0,-0.5739,-0.545,-0.5322,-0.509,-0.4934,-0.4823,-0.4683,-0.4521,-0.4403,-0.4252,-0.4119,-0.3943,-0.3913,-0.3834,-0.3738,-0.359,-0.3508,-0.3597,-0.3375,-0.3369,-0.3429,-0.3356,-0.3381,-0.3279,-0.3369,-0.3366,-0.3364,0,-0.556,-0.5396,-0.5152,-0.4941,-0.487,-0.4747,-0.4553,-0.4412,-0.4227,-0.4148,-0.4011,-0.3914,-0.3741,-0.3748,-0.3507,-0.3572,-0.3475,-0.3391,-0.3383,-0.3351,-0.3359,-0.332,-0.3242,-0.3227,-0.3336,-0.3338,-0.334,0,-0.556,-0.5277,-0.5096,-0.5006,-0.4755,-0.4673,-0.4563,-0.4382,-0.427,-0.4101,-0.4027,-0.3837,-0.3732,-0.3588,-0.3444,-0.3461,-0.3219,-0.3211,-0.3146,-0.315,-0.3092,-0.3097,-0.2996,-0.3039,-0.3039,-0.3039,-0.3039,0,-0.544,-0.5295,-0.5094,-0.4981,-0.4817,-0.4674,-0.4514,-0.4396,-0.4239,-0.4102,-0.3994,-0.3866,-0.3686,-0.3537,-0.3423,-0.3244,-0.3197,-0.3127,-0.3097,-0.3134,-0.3143,-0.3062,-0.3064,-0.3035,-0.3036,-0.3037,-0.3037,0,-0.5406,-0.5266,-0.5062,-0.4848,-0.4791,-0.4679,-0.4493,-0.4381,-0.4265,-0.4093,-0.4044,-0.3858,-0.3678,-0.3524,-0.3282,-0.3207,-0.3021,-0.2987,-0.3085,-0.3069,-0.3013,-0.3019,-0.2852,-0.2823,-0.289,-0.289,-0.289,0,-0.5336,-0.5224,-0.5002,-0.4907,-0.4803,-0.4648,-0.4538,-0.4396,-0.4284,-0.4074,-0.3987,-0.3802,-0.3645,-0.3363,-0.3204,-0.3022,-0.298,-0.2936,-0.2951,-0.2994,-0.2978,-0.2985,-0.2974,-0.2932,-0.2932,-0.2932,-0.2932,0,-0.5228,-0.5168,-0.5015,-0.4842,-0.4716,-0.457,-0.442,-0.4348,-0.4178,-0.4059,-0.3878,-0.3758,-0.3521,-0.3338,-0.3142,-0.3026,-0.295,-0.2932,-0.2906,-0.2939,-0.3,-0.2966,-0.3081,-0.2933,-0.2933,-0.2933,-0.2933,-0.2933,-0.5171,-0.507,-0.4902,-0.4737,-0.4614,-0.4481,-0.4368,-0.4243,-0.4092,-0.3892,-0.3818,-0.3634,-0.3461,-0.3192,-0.3078,-0.2931,-0.2919,-0.2883,-0.2872,-0.2865,-0.2871,-0.3031,-0.2895,-0.2895,-0.2895,-0.2894,-0.2894,0,-0.5056,-0.4947,-0.4799,-0.4601,-0.4473,-0.4427,-0.4262,-0.4157,-0.3999,-0.3848,-0.3701,-0.3498,-0.3324,-0.3159,-0.2976,-0.2891,-0.2852,-0.2847,-0.2849,-0.2824,-0.2892,-0.2932,-0.2882,-0.2882,-0.2882,-0.2882,-0.2882,-0.2882,-0.4981,-0.4809,-0.4731,-0.4498,-0.4387,-0.4213,-0.4124,-0.4001,-0.3881,-0.3662,-0.352,-0.3418,-0.3261,-0.3069,-0.2908,-0.2864,-0.28,-0.2805,-0.2751,-0.2816,-0.2819,-0.2821,-0.2857,-0.2793,-0.2793,-0.2695,-0.2694,-0.2693]},{"header":{"parameterUnit":"m.s-1","parameterCategory":1,"la1":30.2991,"la2":30.254,"lo1":-89.0895,"lo2":-89.0444,"dy":0.0017,"dx":0.0017,"nx":28,"ny":28,"refTime":"2024-06-23T03:00:00:Z","depth":0,"parameterNumber":3,"parameterNumberName":"V-component_of_WINDS"},"data":[0,0,0,0,0,0,0,0,0,0,0,0,0,0,0,0,0,0,0,0,0,0,0,0,0,0,0,0,0,0,0,0,0,0,0,0,0,0,0,0,0,0,0,0,0,0,0,0,0,0,0,0,0,0,0,0,0,0,0.86,0.8598,0,0.8425,0.8423,0.8421,0.8189,0.8186,0.8182,0.8178,0.8013,0.8012,0.8011,0,0,0,0,0,0,0,0,0,0,0,0,0,0.874,0.8738,0.86,0.8598,0.8596,0.8426,0.8423,0.8421,0.819,0.8185,0.8181,0.8176,0.8013,0.8012,0.8011,0,0,0,0,0,0,0,0,0,0,0,0,0,0.8634,0.8738,0.86,0.846,0.8445,0.8426,0.8423,0.842,0.8191,0.8185,0.8179,0.8174,0.8013,0.8012,0.8011,0.812,0,0,0.8007,0.8007,0,0,0,0,0,0,0,0,0.864,0.8629,0.8482,0.8469,0.8453,0.8323,0.8411,0.832,0.8193,0.8288,0.8178,0.8171,0.8122,0.8111,0.8091,0.8112,0.8105,0.8007,0.8007,0.8006,0.8006,0,0,0,0,0,0,0,0.8648,0.8635,0.8531,0.8481,0.8463,0.8407,0.8386,0.8393,0.824,0.8279,0.8262,0.8244,0.8112,0.8093,0.8086,0.8103,0.8007,0.8006,0.8005,0.8005,0.8199,0.8205,0,0,0,0,0,0,0.8675,0.8643,0.8537,0.8526,0.8534,0.8409,0.8385,0.8371,0.8239,0.8213,0.8249,0.8234,0.8098,0.8088,0.8079,0.8197,0.8006,0.8005,0.8004,0.8193,0.82,0.8207,0,0,0,0,0,0,0.8679,0.8668,0.8544,0.8579,0.8559,0.8413,0.8399,0.837,0.8351,0.8216,0.8188,0.8257,0.8093,0.8081,0.8109,0.8188,0.8004,0.8003,0.8186,0.8196,0.8204,0.8435,0,0,0,0,0,0,0.8684,0.867,0.871,0.8582,0.8558,0.8576,0.8403,0.8371,0.8348,0.8326,0.8216,0.8193,0.8088,0.8113,0.8108,0.8183,0.8002,0.8179,0.819,0.8201,0.842,0.8451,0.8477,0,0,0,0,0,0.869,0.8786,0.8713,0.8702,0.8604,0.8581,0.8568,0.8441,0.8355,0.8394,0.8306,0.8196,0.8178,0.8117,0.8111,0.8187,0.8174,0.8187,0.82,0.8407,0.8445,0.8476,0,0,0,0,0,0,0.8934,0.8767,0.8685,0.8741,0.8676,0.8542,0.8588,0.8486,0.8448,0.843,0.8277,0.8254,0.8302,0.8246,0.8181,0.8282,0.8159,0.8172,0.8319,0.8353,0.8381,0.8397,0.8001,0,0,0,0,0,0.8992,0.8985,0.884,0.8905,0.8875,0.8737,0.8723,0.8629,0.8558,0.8531,0.8446,0.8384,0.8363,0.8354,0.8328,0.8407,0.8381,0.8455,0.8484,0.8508,0.8523,0.8559,0.8591,0.825,0.825,0.825,0,0,0.9118,0.9025,0.9031,0.8951,0.889,0.8888,0.8717,0.8723,0.872,0.8534,0.8555,0.8489,0.8409,0.8463,0.8482,0.8418,0.8609,0.8525,0.8545,0.8547,0.8576,0.8609,0.8637,0.8259,0.8257,0.8256,0,0,0.9345,0.9273,0.9317,0.9257,0.9163,0.9069,0.908,0.8958,0.8906,0.8922,0.8781,0.8776,0.8745,0.8693,0.8663,0.8859,0.8757,0.8854,0.9007,0.9044,0.9071,0.9094,0.9166,0.9194,0.8868,0.8869,0.8869,0,0.9514,0.9502,0.9355,0.9367,0.9336,0.9158,0.9203,0.9152,0.9058,0.9042,0.8967,0.892,0.8854,0.8893,0.894,0.892,0.8929,0.8871,0.9078,0.91,0.9119,0.9187,0.9214,0.8882,0.888,0.8879,0.8878,0,0.9714,0.9708,0.9755,0.9661,0.9634,0.9664,0.9522,0.9512,0.9418,0.9332,0.935,0.9262,0.9214,0.9215,0.9127,0.924,0.9202,0.9105,0.898,0.9167,0.9228,0.9252,0.89,0.8895,0.8891,0.8888,0,0,1.0101,0.9917,0.9938,0.9891,0.977,0.9764,0.9783,0.9729,0.9725,0.9663,0.9677,0.9649,0.9556,0.9522,0.9424,0.9456,0.9618,0.9354,0.935,0.9409,0.9738,0.9816,0.9848,0.9545,0.9549,0.9553,0.9746,0,1.0308,1.0329,1.0193,1.0251,1.0243,1.0069,1.0085,1.0014,0.9931,0.9914,0.9823,0.9807,0.9684,0.9662,0.9684,0.9594,0.9683,0.9577,0.9562,0.9563,0.9593,0.9879,0.9963,1.015,0.9768,0.9772,0.9775,0,1.0557,1.0501,1.0557,1.0428,1.0419,1.0437,1.0374,1.0358,1.0272,1.021,1.0167,1.0051,1.0062,0.9936,0.9949,0.988,0.9864,0.9817,0.9821,0.9821,0.9686,0.9891,1.0206,1.0236,0.981,0.9808,0.9805,0,1.0836,1.0775,1.0799,1.0764,1.0614,1.063,1.0569,1.0476,1.0451,1.0396,1.0378,1.0328,1.0302,1.0266,1.014,1.006,1.0169,1.0033,1.012,1.0124,1.0158,1.0159,1.0481,1.0139,1.0139,1.0138,1.0138,0,1.1086,1.1128,1.0922,1.0939,1.0979,1.082,1.0866,1.0788,1.0705,1.0704,1.0549,1.0552,1.0382,1.0367,1.0267,1.0294,1.0283,1.0235,1.021,1.0252,1.0259,1.0245,1.0231,1.0146,1.0144,1.0143,1.0141,0,1.1409,1.1272,1.1288,1.114,1.1103,1.1141,1.1015,1.1025,1.0927,1.0928,1.0919,1.077,1.0742,1.0609,1.0553,1.0485,1.0548,1.0494,1.0577,1.0561,1.0658,1.0652,1.0986,1.1023,1.0655,1.0659,1.0662,0,1.158,1.1607,1.146,1.1445,1.1389,1.1368,1.1339,1.1181,1.1159,1.1058,1.108,1.1038,1.0997,1.0961,1.085,1.0804,1.075,1.0869,1.0743,1.0784,1.0756,1.0758,1.0761,1.09,1.0905,1.0909,1.0912,0,1.19,1.1828,1.1791,1.1729,1.1697,1.1641,1.1577,1.1575,1.1399,1.1381,1.1347,1.1315,1.1251,1.1213,1.1147,1.1085,1.0972,1.095,1.0969,1.1017,1.1065,1.1043,1.0657,1.0946,1.0943,1.094,1.0938,1.0937,1.2154,1.2169,1.2066,1.2028,1.196,1.1902,1.1902,1.1802,1.177,1.1704,1.1611,1.1591,1.1498,1.1397,1.1343,1.1326,1.1261,1.1288,1.1295,1.1306,1.1328,1.1062,1.1313,1.1311,1.131,1.1309,1.1308,0,1.2468,1.239,1.2356,1.2268,1.2238,1.2122,1.2043,1.2028,1.2009,1.193,1.189,1.1851,1.181,1.1691,1.1639,1.1648,1.1594,1.164,1.1641,1.1629,1.1388,1.1378,1.1684,1.1684,1.1684,1.1684,1.1684,1.1684,1.2629,1.2647,1.2562,1.2545,1.2467,1.2441,1.2406,1.2351,1.2287,1.2248,1.2211,1.2131,1.2036,1.1974,1.1932,1.1898,1.1889,1.1953,1.1903,1.1682,1.1646,1.1612,1.1603,1.1951,1.1951,1.2146,1.2148,1.2149]}]]